This is the latest recevied weather packets stored in our database for station/object N5ZP. If no packets are shown the sender has not sent any weather packets the latest 10 day(s).
| Time | Temp. | Humidity | Pressure | Rain* | Wind** | Luminosity | Snow |
|---|---|---|---|---|---|---|---|
| 1777989680 | 23.33° C | 77% | 1001.6 hPa | 0 mm | - | 174 W/m² | - |
| 1777989375 | 23.33° C | 77% | 1001.5 hPa | 0 mm | - | 214 W/m² | - |
| 1777989073 | 23.89° C | 76% | 1001.7 hPa | 0 mm | - | 199 W/m² | - |
| 1777988768 | 23.89° C | 77% | 1001.8 hPa | 0 mm | - | 191 W/m² | - |
| 1777988466 | 23.33° C | 77% | 1001.2 hPa | 0 mm | - | 208 W/m² | - |
| 1777988163 | 22.78° C | 78% | 1001.2 hPa | 0 mm | - | 258 W/m² | - |
| 1777987858 | 22.22° C | 81% | 1001.2 hPa | 0 mm | - | 153 W/m² | - |
| 1777987555 | 22.22° C | 81% | 1001 hPa | 0 mm | - | 110 W/m² | - |
| 1777987253 | 22.22° C | 81% | 1000.9 hPa | 0 mm | - | 88 W/m² | - |
| 1777986949 | 22.22° C | 81% | 1001.2 hPa | 0 mm | - | 87 W/m² | - |
| 1777986647 | 22.22° C | 81% | 1001 hPa | 0 mm | - | 108 W/m² | - |
| 1777986345 | 21.67° C | 82% | 1000.9 hPa | 0 mm | - | 112 W/m² | - |
| 1777986043 | 21.67° C | 82% | 1000.9 hPa | 0 mm | - | 95 W/m² | - |
| 1777985739 | 21.67° C | 82% | 1001 hPa | 0 mm | - | 77 W/m² | - |
| 1777985436 | 21.11° C | 83% | 1001 hPa | 0 mm | - | 69 W/m² | - |
| 1777985133 | 21.11° C | 83% | 1000.8 hPa | 0 mm | - | 64 W/m² | - |
| 1777984829 | 21.11° C | 83% | 1000.9 hPa | 0 mm | - | 61 W/m² | - |
| 1777984526 | 21.11° C | 83% | 1001 hPa | 0 mm | - | 52 W/m² | - |
| 1777984222 | 21.11° C | 84% | 1000.7 hPa | 0 mm | - | 52 W/m² | - |
| 1777983919 | 21.11° C | 83% | 1000.6 hPa | 0 mm | - | 32 W/m² | - |
| 1777983616 | 21.11° C | 83% | 1000.6 hPa | 0 mm | - | 32 W/m² | - |
| 1777983312 | 21.11° C | 84% | 1000.6 hPa | 0 mm | - | 28 W/m² | - |
| 1777983009 | 20.56° C | 84% | 1000.5 hPa | 0 mm | - | 23 W/m² | - |
| 1777982705 | 20.56° C | 84% | 1000.4 hPa | 0 mm | - | 13 W/m² | - |
| 1777982405 | 20.56° C | 84% | 1000.5 hPa | 0 mm | - | 11 W/m² | - |
* Rain latest hour (hover to see other rain measurements)
** Current wind speed in m/s (hover to see current wind gust speed)